Regional Weather Roundup
Issued by NWS

Home | Current Version | Previous Version | Graphics & Text | Print | Product List | Glossary On
Versions: 1 2 3 4 5 6 7 8 9 10 11 12 13 14 15 16 17 18 19 20 21 22 23 24 25 26 27 28 29 30 31 32 33 34 35 36 37 38 39 40 41 42 43 44 45 46 47 48 49 50
000
ASUS43 KIND 210509
RWRIN

WEATHER ROUNDUP FOR INDIANA
NATIONAL WEATHER SERVICE INDIANAPOLIS IN
100 AM EDT TUE APR 21 2015

NOTE: "FAIR" INDICATES FEW OR NO CLOUDS BELOW 12,000 FEET WITH NO
SIGNIFICANT WEATHER AND/OR OBSTRUCTIONS TO VISIBILITY.

* - STATION DOES NOT REPORT WEATHER SUCH AS PRECIPITATION OR FOG.

+ - STATION NOT QUALITY CONTROLLED BY THE NATIONAL WEATHER SERVICE.
    USE DATA WITH CAUTION...ESPECIALLY DEWPOINT AND RELATIVE
    HUMIDITY OBSERVATIONS.

INZ001>003-010>013-019-020-210600-
NORTHWEST INDIANA

CITY           SKY/WX    TMP DP  RH WIND       PRES   REMARKS
GARY /AIRPORT/ MOCLDY    46  31  56 SW7       29.65S
KNOX *+        MOCLDY    43  23  45 W12G17    29.65F
LA PORTE +     MOCLDY    43  36  75 SW12      29.64F
MICHIGAN CITY+ CLOUDY    43  32  65 SW10      29.64S
MONTICELLO +   CLOUDY    43  38  82 SW12      29.70F
RENSSELAER +   MOCLDY    43  37  81 SW8       29.69S
VALPARAISO     PTCLDY    41  34  76 SW9       29.66S

$$

LMZ046-743>745-210600-
SOUTHERN LAKE MICHIGAN

STATION/POSITION TIME  TEMP    WIND        PRES    WAVE
                       AIR SEA DIR/SP/G            HT
                 (UTC) (F)     (DEG/KT/KT) (MB)    (FT)
BURNS HARBOR     0500   45     230/ 12/ 17 1004.4S
MICHIGAN CITY    0500   45     220/ 20/ 23   N/A
5NW MICH CITY    0500   45 45  250/ 17/ 23   N/A     4

$$

INZ004-005-014>016-021>024-210600-
NORTH CENTRAL INDIANA

CITY           SKY/WX    TMP DP  RH WIND       PRES   REMARKS
GOSHEN         CLOUDY    41  35  79 SW14      29.64S
LOGANSPORT +   MOCLDY    43  36  75 W18G25    29.71S
PERU/GRISSOM   MOCLDY    43  37  81 W23       29.70S
ROCHESTER +    MOCLDY    45  37  76 SW13      29.68S
SOUTH BEND     CLOUDY    44  33  65 SW12      29.63F
WARSAW +       MOCLDY    43  36  75 SW12G17   29.66S

$$

INZ006>009-017-018-025>027-210600-
NORTHEAST INDIANA

CITY           SKY/WX    TMP DP  RH WIND       PRES   REMARKS
ANGOLA *+      MOCLDY    43  32  65 W10       29.63S
AUBURN +       PTCLDY    43  34  70 SW6       29.66S
FORT WAYNE     CLOUDY    44  35  70 SW13      29.68S
HUNTINGTON +   CLOUDY    44  32  64 W14       29.69R

$$

INZ028-029-035-036-043>045-051>053-210600-
WEST CENTRAL INDIANA

CITY           SKY/WX    TMP DP  RH WIND       PRES   REMARKS
CRAWFORDSVL +  PTCLDY    42  31  63 SW10      29.74F
GREENCASTLE +  CLOUDY    45  28  53 SW5       29.78S
LAFAYETTE      MOCLDY    42  34  73 W7        29.72S
TERRE HAUTE    MOCLDY    46  35  65 SW8       29.79S

$$

INZ030>032-037>040-046>048-054>057-064-065-210600-
CENTRAL INDIANA

CITY           SKY/WX    TMP DP  RH WIND       PRES   REMARKS
CP ATTERBURY + MOCLDY    45  34  65 SW6       29.80S
FISHERS *+     MOCLDY    45  37  76 SW9       29.75S
FRANKFORT +    RAIN      44  38  79 SW28G33   29.75R
GREENWOOD *+   MOCLDY    46  32  57 W8G17     29.78S
INDIANAPOLIS   CLOUDY    46  34  62 SW14      29.74F
-EAGLE CREEK   MOCLDY    46  35  65 SW8       29.75S
KOKOMO *+      MOCLDY    43  36  75 SW9       29.72S
MARION +       CLOUDY    40  36  83 W9        29.72S
MT COMFORT *+  PTCLDY    46  30  53 SW12      29.76S
SHELBYVILLE    CLOUDY    48  37  65 SW10      29.77S
ZIONSVILLE +   MOCLDY    44  35  69 SW9       29.75S

$$

INZ033-034-041-042-049-050-058-059-210600-
EAST CENTRAL INDIANA

CITY           SKY/WX    TMP DP  RH WIND       PRES   REMARKS
MUNCIE         CLOUDY    46  35  65 W9        29.73R

$$

INZ060-061-067>069-081>083-085>088-210600-
SOUTHWEST INDIANA

CITY           SKY/WX    TMP DP  RH WIND       PRES   REMARKS
EVANSVILLE     MOCLDY    48  37  65 CALM      29.87S
HUNTINGBURG *+ MOCLDY    46  36  66 SW6       29.86S
WASHINGTON +   PTCLDY    46  34  61 SW6       29.83S

$$

INZ062-063-066-070>080-084-089>092-210600-
SOUTH CENTRAL AND SOUTHEAST INDIANA

CITY           SKY/WX    TMP DP  RH WIND       PRES   REMARKS
BEDFORD +      MOCLDY    46  34  61 SW6       29.82S
BLOOMINGTON    MOCLDY    45  35  68 SW7       29.80S
MADISON *+     PTCLDY    45  34  65 SW7       29.85R
NORTH VERNON + MOCLDY    46  36  66 SW7       29.82R

$$




USA.gov is the U.S. government's official web portal to all federal, state and local government web resources and services.